STARLINK-31192, 58794

Orbit data source: Space-Track

STARLINK-31192, 58794 is a payload satellite owned by SpaceX/Seattle (US) in LEO that was launched on Mon, 15 Jan 2024 UTC via an FALCON 9 launch vehicle from the Air Force Eastern Test Range (AFETR). Payload-class satellites include a variety of spacecraft equipped with specific instruments for various scientific and technological missions. These include communications satellites like Starlink; space stations such as the ISS; scientific satellites like the Hubble; Earth observation satellites from companies like Planet Labs, Umbra, and HawkEye 360; GPS; miniature CubeSats for education and research; and military/defense satellites.

Loading next visibility...
Identifier
58794, 2024-012H
Orbit
LEO
Country
Flag of USUS
Related business
Manufacturer
SpaceX/Seattle
Mission
Operational Commercial Communications
Bus & Motor
STARLINK V2M, Unknown motor
Mass
730 kg wet, ~700 kg dry
Launch date (UTC)
2024-01-15 (2 years ago)
Launch vehicle
FALCON 9
Launch site
Air Force Eastern Test Range (AFETR)
Object type
Payload
Rocket body
Debris
Shape & HBR
Box + 2 Pan, 17.7 m
Radar Cross Section
33.884 m², Large (>1 m²)

Expand to show TLE details & history
Last TLE update: 2 days ago

TLE from 2 days ago
0 STARLINK-31192
1 58794U 24012H   26171.42137928  .00003245  00000-0  12733-3 0  9998
2 58794  43.0033 305.3969 0001023 217.0375 143.0406 15.27594932136942
Epoch: 2026-06-20T10:06Z
TLE epoch observation values (Epoch: 2026-06-20T10:06:47.169Z)
Latitude
-0.00004°
Longitude
-114.93593°
Altitude
483.341 km
Speed
7.625 km/s
True Right ascension
20h 21m 35s
True Declination
0° 00' 00"
Sunlit
Object was in full shadow at epoch
Visualization orbit readout
Latitude
Unknown
Longitude
Unknown
Altitude
Unknown
Speed
Unknown
Apparent Right ascension
Unknown
Apparent Declination
Unknown
Sunlit
N/A
Visualization observer readout
Local Sidereal Time
00:39:42
Azimuth
Unknown
Elevation
Unknown
Doppler factor
Unknown
Orbital elements
Apogee altitude
485.651 km
Perigee altitude
484.247 km
Semi-major axis
6,863.086 km
Eccentricity
0.0001
Inclination
43.0033°
RAAN
305.3969°
Arg. of periapsis
217.0375°
True anomaly
143.04765°
Mean anomaly
143.0406°
Eccentric anomaly
143.04412°
Mean motion
3.81737 °/min
Orbital period
94.31 mins
BSTAR
0.00012733
Loading maneuver chart data...
Computing Atmospheric mass density...
Loading historical data...
Loading historical data...
Loading historical data...
Loading historical data...
Loading historical data...
Loading historical data...
Loading historical data...

Documentation

Showing up to 5 results
|